Year,Month,Day,Hour,Minute,Value (Times are PST for insolation in W/m^2)
2017,05,16,00,00,0.00
2017,05,16,00,01,0.00
2017,05,16,00,02,0.00
2017,05,16,00,03,0.00
2017,05,16,00,04,0.00
2017,05,16,00,05,0.00
2017,05,16,00,06,0.00
2017,05,16,00,07,0.00
2017,05,16,00,08,0.00
2017,05,16,00,09,0.00
2017,05,16,00,10,0.00
2017,05,16,00,11,0.00
2017,05,16,00,12,0.00
2017,05,16,00,13,0.00
2017,05,16,00,14,0.00
2017,05,16,00,15,0.00
2017,05,16,00,16,0.00
2017,05,16,00,17,0.00
2017,05,16,00,18,0.00
2017,05,16,00,19,0.00
2017,05,16,00,20,0.00
2017,05,16,00,21,0.00
2017,05,16,00,22,0.00
2017,05,16,00,23,0.00
2017,05,16,00,24,0.00
2017,05,16,00,25,0.00
2017,05,16,00,26,0.00
2017,05,16,00,27,0.00
2017,05,16,00,28,0.00
2017,05,16,00,29,0.00
2017,05,16,00,30,0.00
2017,05,16,00,31,0.00
2017,05,16,00,32,0.00
2017,05,16,00,33,0.00
2017,05,16,00,34,0.00
2017,05,16,00,35,0.00
2017,05,16,00,36,0.00
2017,05,16,00,37,0.00
2017,05,16,00,38,0.00
2017,05,16,00,39,0.00
2017,05,16,00,40,0.00
2017,05,16,00,41,0.00
2017,05,16,00,42,0.00
2017,05,16,00,43,0.00
2017,05,16,00,44,0.00
2017,05,16,00,45,0.00
2017,05,16,00,46,0.00
2017,05,16,00,47,0.00
2017,05,16,00,48,0.00
2017,05,16,00,49,0.00
2017,05,16,00,50,0.00
2017,05,16,00,51,0.00
2017,05,16,00,52,0.00
2017,05,16,00,53,0.00
2017,05,16,00,54,0.00
2017,05,16,00,55,0.00
2017,05,16,00,56,0.00
2017,05,16,00,57,0.00
2017,05,16,00,58,0.00
2017,05,16,00,59,0.00
2017,05,16,01,00,0.00
2017,05,16,01,01,0.00
2017,05,16,01,02,0.00
2017,05,16,01,03,0.00
2017,05,16,01,04,0.00
2017,05,16,01,05,0.00
2017,05,16,01,06,0.00
2017,05,16,01,07,0.00
2017,05,16,01,08,0.00
2017,05,16,01,09,0.00
2017,05,16,01,10,0.00
2017,05,16,01,11,0.00
2017,05,16,01,12,0.00
2017,05,16,01,13,0.00
2017,05,16,01,14,0.00
2017,05,16,01,15,0.00
2017,05,16,01,16,0.00
2017,05,16,01,17,0.00
2017,05,16,01,18,0.00
2017,05,16,01,19,0.00
2017,05,16,01,20,0.00
2017,05,16,01,21,0.00
2017,05,16,01,22,0.00
2017,05,16,01,23,0.00
2017,05,16,01,24,0.00
2017,05,16,01,25,0.00
2017,05,16,01,26,0.00
2017,05,16,01,27,0.00
2017,05,16,01,28,0.00
2017,05,16,01,29,0.00
2017,05,16,01,30,0.00
2017,05,16,01,31,0.00
2017,05,16,01,32,0.00
2017,05,16,01,33,0.00
2017,05,16,01,34,0.00
2017,05,16,01,35,0.00
2017,05,16,01,36,0.00
2017,05,16,01,37,0.00
2017,05,16,01,38,0.00
2017,05,16,01,39,0.00
2017,05,16,01,40,0.00
2017,05,16,01,41,0.00
2017,05,16,01,42,0.00
2017,05,16,01,43,0.00
2017,05,16,01,44,0.00
2017,05,16,01,45,0.00
2017,05,16,01,46,0.00
2017,05,16,01,47,0.00
2017,05,16,01,48,0.00
2017,05,16,01,49,0.00
2017,05,16,01,50,0.00
2017,05,16,01,51,0.00
2017,05,16,01,52,0.00
2017,05,16,01,53,0.00
2017,05,16,01,54,0.00
2017,05,16,01,55,0.00
2017,05,16,01,56,0.00
2017,05,16,01,57,0.00
2017,05,16,01,58,0.00
2017,05,16,01,59,0.00
2017,05,16,02,00,0.00
2017,05,16,02,01,0.00
2017,05,16,02,02,0.00
2017,05,16,02,03,0.00
2017,05,16,02,04,0.00
2017,05,16,02,05,0.00
2017,05,16,02,06,0.00
2017,05,16,02,07,0.00
2017,05,16,02,08,0.00
2017,05,16,02,09,0.00
2017,05,16,02,10,0.00
2017,05,16,02,11,0.00
2017,05,16,02,12,0.00
2017,05,16,02,13,0.00
2017,05,16,02,14,0.00
2017,05,16,02,15,0.00
2017,05,16,02,16,0.00
2017,05,16,02,17,0.00
2017,05,16,02,18,0.00
2017,05,16,02,19,0.00
2017,05,16,02,20,0.00
2017,05,16,02,21,0.00
2017,05,16,02,22,0.00
2017,05,16,02,23,0.00
2017,05,16,02,24,0.00
2017,05,16,02,25,0.00
2017,05,16,02,26,0.00
2017,05,16,02,27,0.00
2017,05,16,02,28,0.00
2017,05,16,02,29,0.00
2017,05,16,02,30,0.00
2017,05,16,02,31,0.00
2017,05,16,02,32,0.00
2017,05,16,02,33,0.00
2017,05,16,02,34,0.00
2017,05,16,02,35,0.00
2017,05,16,02,36,0.00
2017,05,16,02,37,0.00
2017,05,16,02,38,0.00
2017,05,16,02,39,0.00
2017,05,16,02,40,0.00
2017,05,16,02,41,0.00
2017,05,16,02,42,0.00
2017,05,16,02,43,0.00
2017,05,16,02,44,0.00
2017,05,16,02,45,0.00
2017,05,16,02,46,0.00
2017,05,16,02,47,0.00
2017,05,16,02,48,0.00
2017,05,16,02,49,0.00
2017,05,16,02,50,0.00
2017,05,16,02,51,0.00
2017,05,16,02,52,0.00
2017,05,16,02,53,0.00
2017,05,16,02,54,0.00
2017,05,16,02,55,0.00
2017,05,16,02,56,0.00
2017,05,16,02,57,0.00
2017,05,16,02,58,0.00
2017,05,16,02,59,0.00
2017,05,16,03,00,0.00
2017,05,16,03,01,0.00
2017,05,16,03,02,0.00
2017,05,16,03,03,0.00
2017,05,16,03,04,0.00
2017,05,16,03,05,0.00
2017,05,16,03,06,0.00
2017,05,16,03,07,0.00
2017,05,16,03,08,0.00
2017,05,16,03,09,0.00
2017,05,16,03,10,0.00
2017,05,16,03,11,0.00
2017,05,16,03,12,0.00
2017,05,16,03,13,0.00
2017,05,16,03,14,0.00
2017,05,16,03,15,0.00
2017,05,16,03,16,0.00
2017,05,16,03,17,0.00
2017,05,16,03,18,0.00
2017,05,16,03,19,0.00
2017,05,16,03,20,0.00
2017,05,16,03,21,0.00
2017,05,16,03,22,0.00
2017,05,16,03,23,0.00
2017,05,16,03,24,0.00
2017,05,16,03,25,0.00
2017,05,16,03,26,0.00
2017,05,16,03,27,0.00
2017,05,16,03,28,0.00
2017,05,16,03,29,0.00
2017,05,16,03,30,0.00
2017,05,16,03,31,0.00
2017,05,16,03,32,0.00
2017,05,16,03,33,0.00
2017,05,16,03,34,0.00
2017,05,16,03,35,0.00
2017,05,16,03,36,0.00
2017,05,16,03,37,0.00
2017,05,16,03,38,0.00
2017,05,16,03,39,0.00
2017,05,16,03,40,0.00
2017,05,16,03,41,0.00
2017,05,16,03,42,0.00
2017,05,16,03,43,0.00
2017,05,16,03,44,0.00
2017,05,16,03,45,0.00
2017,05,16,03,46,0.00
2017,05,16,03,47,0.00
2017,05,16,03,48,0.00
2017,05,16,03,49,0.00
2017,05,16,03,50,0.00
2017,05,16,03,51,0.00
2017,05,16,03,52,0.00
2017,05,16,03,53,0.00
2017,05,16,03,54,0.00
2017,05,16,03,55,0.00
2017,05,16,03,56,0.00
2017,05,16,03,57,0.00
2017,05,16,03,58,0.00
2017,05,16,03,59,0.00
2017,05,16,04,00,0.00
2017,05,16,04,01,0.00
2017,05,16,04,02,0.00
2017,05,16,04,03,0.00
2017,05,16,04,04,0.00
2017,05,16,04,05,0.00
2017,05,16,04,06,0.00
2017,05,16,04,07,0.00
2017,05,16,04,08,0.00
2017,05,16,04,09,0.00
2017,05,16,04,10,0.00
2017,05,16,04,11,0.00
2017,05,16,04,12,0.00
2017,05,16,04,13,0.00
2017,05,16,04,14,0.00
2017,05,16,04,15,0.00
2017,05,16,04,16,0.00
2017,05,16,04,17,0.00
2017,05,16,04,18,0.00
2017,05,16,04,19,0.00
2017,05,16,04,20,0.00
2017,05,16,04,21,0.00
2017,05,16,04,22,0.00
2017,05,16,04,23,0.00
2017,05,16,04,24,0.00
2017,05,16,04,25,0.00
2017,05,16,04,26,0.00
2017,05,16,04,27,0.00
2017,05,16,04,28,0.00
2017,05,16,04,29,0.00
2017,05,16,04,30,0.00
2017,05,16,04,31,0.00
2017,05,16,04,32,0.00
2017,05,16,04,33,0.00
2017,05,16,04,34,0.00
2017,05,16,04,35,0.00
2017,05,16,04,36,0.00
2017,05,16,04,37,0.00
2017,05,16,04,38,0.00
2017,05,16,04,39,0.00
2017,05,16,04,40,0.00
2017,05,16,04,41,0.00
2017,05,16,04,42,0.00
2017,05,16,04,43,0.00
2017,05,16,04,44,0.00
2017,05,16,04,45,0.00
2017,05,16,04,46,0.00
2017,05,16,04,47,0.00
2017,05,16,04,48,0.00
2017,05,16,04,49,0.00
2017,05,16,04,50,0.00
2017,05,16,04,51,0.00
2017,05,16,04,52,0.00
2017,05,16,04,53,0.00
2017,05,16,04,54,0.00
2017,05,16,04,55,0.00
2017,05,16,04,56,0.00
2017,05,16,04,57,0.00
2017,05,16,04,58,0.00
2017,05,16,04,59,0.00
2017,05,16,05,00,0.00
2017,05,16,05,01,0.00
2017,05,16,05,02,0.00
2017,05,16,05,03,0.00
2017,05,16,05,04,0.00
2017,05,16,05,05,0.00
2017,05,16,05,06,0.00
2017,05,16,05,07,0.00
2017,05,16,05,08,0.00
2017,05,16,05,09,0.00
2017,05,16,05,10,0.00
2017,05,16,05,11,0.00
2017,05,16,05,12,0.00
2017,05,16,05,13,0.00
2017,05,16,05,14,0.00
2017,05,16,05,15,0.00
2017,05,16,05,16,0.00
2017,05,16,05,17,0.00
2017,05,16,05,18,0.00
2017,05,16,05,19,0.00
2017,05,16,05,20,0.00
2017,05,16,05,21,0.00
2017,05,16,05,22,0.00
2017,05,16,05,23,0.00
2017,05,16,05,24,0.00
2017,05,16,05,25,0.00
2017,05,16,05,26,0.00
2017,05,16,05,27,0.00
2017,05,16,05,28,0.00
2017,05,16,05,29,0.00
2017,05,16,05,30,0.00
2017,05,16,05,31,0.00
2017,05,16,05,32,0.00
2017,05,16,05,33,0.00
2017,05,16,05,34,0.00
2017,05,16,05,35,0.00
2017,05,16,05,36,0.00
2017,05,16,05,37,0.00
2017,05,16,05,38,0.00
2017,05,16,05,39,0.00
2017,05,16,05,40,0.00
2017,05,16,05,41,0.00
2017,05,16,05,42,0.00
2017,05,16,05,43,0.00
2017,05,16,05,44,0.00
2017,05,16,05,45,0.70
2017,05,16,05,46,5.00
2017,05,16,05,47,5.00
2017,05,16,05,48,5.00
2017,05,16,05,49,5.00
2017,05,16,05,50,5.00
2017,05,16,05,51,5.00
2017,05,16,05,52,5.00
2017,05,16,05,53,5.00
2017,05,16,05,54,6.40
2017,05,16,05,55,7.00
2017,05,16,05,56,7.00
2017,05,16,05,57,7.00
2017,05,16,05,58,7.00
2017,05,16,05,59,7.00
2017,05,16,06,00,7.00
2017,05,16,06,01,7.50
2017,05,16,06,02,9.00
2017,05,16,06,03,9.00
2017,05,16,06,04,9.00
2017,05,16,06,05,9.00
2017,05,16,06,06,9.00
2017,05,16,06,07,10.20
2017,05,16,06,08,11.00
2017,05,16,06,09,11.00
2017,05,16,06,10,11.00
2017,05,16,06,11,11.00
2017,05,16,06,12,11.00
2017,05,16,06,13,12.00
2017,05,16,06,14,12.00
2017,05,16,06,15,12.00
2017,05,16,06,16,12.00
2017,05,16,06,17,12.60
2017,05,16,06,18,14.00
2017,05,16,06,19,14.80
2017,05,16,06,20,17.00
2017,05,16,06,21,18.00
2017,05,16,06,22,18.60
2017,05,16,06,23,19.00
2017,05,16,06,24,20.40
2017,05,16,06,25,21.00
2017,05,16,06,26,21.00
2017,05,16,06,27,21.00
2017,05,16,06,28,21.00
2017,05,16,06,29,21.00
2017,05,16,06,30,21.00
2017,05,16,06,31,21.00
2017,05,16,06,32,21.60
2017,05,16,06,33,23.00
2017,05,16,06,34,23.00
2017,05,16,06,35,24.00
2017,05,16,06,36,25.00
2017,05,16,06,37,25.60
2017,05,16,06,38,27.30
2017,05,16,06,39,28.00
2017,05,16,06,40,29.50
2017,05,16,06,41,32.50
2017,05,16,06,42,34.80
2017,05,16,06,43,38.80
2017,05,16,06,44,39.10
2017,05,16,06,45,40.00
2017,05,16,06,46,40.00
2017,05,16,06,47,40.00
2017,05,16,06,48,40.70
2017,05,16,06,49,42.00
2017,05,16,06,50,43.00
2017,05,16,06,51,45.10
2017,05,16,06,52,46.60
2017,05,16,06,53,48.30
2017,05,16,06,54,51.90
2017,05,16,06,55,53.80
2017,05,16,06,56,55.70
2017,05,16,06,57,57.80
2017,05,16,06,58,59.90
2017,05,16,06,59,57.80
2017,05,16,07,00,55.70
2017,05,16,07,01,53.80
2017,05,16,07,02,52.40
2017,05,16,07,03,51.00
2017,05,16,07,04,50.20
2017,05,16,07,05,49.00
2017,05,16,07,06,49.00
2017,05,16,07,07,49.00
2017,05,16,07,08,51.70
2017,05,16,07,09,53.80
2017,05,16,07,10,54.00
2017,05,16,07,11,57.40
2017,05,16,07,12,61.60
2017,05,16,07,13,65.40
2017,05,16,07,14,76.80
2017,05,16,07,15,85.00
2017,05,16,07,16,95.30
2017,05,16,07,17,109.00
2017,05,16,07,18,101.30
2017,05,16,07,19,75.30
2017,05,16,07,20,58.00
2017,05,16,07,21,60.50
2017,05,16,07,22,71.00
2017,05,16,07,23,113.90
2017,05,16,07,24,135.00
2017,05,16,07,25,135.00
2017,05,16,07,26,103.30
2017,05,16,07,27,98.00
2017,05,16,07,28,122.00
2017,05,16,07,29,126.60
2017,05,16,07,30,122.30
2017,05,16,07,31,118.60
2017,05,16,07,32,125.60
2017,05,16,07,33,141.70
2017,05,16,07,34,149.10
2017,05,16,07,35,146.00
2017,05,16,07,36,147.00
2017,05,16,07,37,149.90
2017,05,16,07,38,158.30
2017,05,16,07,39,168.40
2017,05,16,07,40,190.80
2017,05,16,07,41,256.90
2017,05,16,07,42,341.00
2017,05,16,07,43,352.00
2017,05,16,07,44,329.00
2017,05,16,07,45,110.10
2017,05,16,07,46,103.90
2017,05,16,07,47,98.50
2017,05,16,07,48,92.50
2017,05,16,07,49,86.30
2017,05,16,07,50,82.70
2017,05,16,07,51,80.00
2017,05,16,07,52,77.80
2017,05,16,07,53,77.00
2017,05,16,07,54,78.50
2017,05,16,07,55,82.10
2017,05,16,07,56,87.30
2017,05,16,07,57,92.50
2017,05,16,07,58,98.00
2017,05,16,07,59,104.90
2017,05,16,08,00,114.10
2017,05,16,08,01,122.40
2017,05,16,08,02,127.30
2017,05,16,08,03,128.00
2017,05,16,08,04,129.60
2017,05,16,08,05,134.40
2017,05,16,08,06,143.30
2017,05,16,08,07,154.20
2017,05,16,08,08,161.30
2017,05,16,08,09,164.40
2017,05,16,08,10,163.50
2017,05,16,08,11,168.10
2017,05,16,08,12,181.70
2017,05,16,08,13,201.40
2017,05,16,08,14,207.00
2017,05,16,08,15,207.00
2017,05,16,08,16,237.90
2017,05,16,08,17,365.50
2017,05,16,08,18,418.00
2017,05,16,08,19,364.80
2017,05,16,08,20,289.90
2017,05,16,08,21,271.00
2017,05,16,08,22,242.60
2017,05,16,08,23,267.70
2017,05,16,08,24,280.10
2017,05,16,08,25,279.00
2017,05,16,08,26,279.00
2017,05,16,08,27,279.00
2017,05,16,08,28,448.40
2017,05,16,08,29,455.20
2017,05,16,08,30,459.50
2017,05,16,08,31,462.50
2017,05,16,08,32,465.10
2017,05,16,08,33,469.10
2017,05,16,08,34,472.60
2017,05,16,08,35,481.40
2017,05,16,08,36,496.90
2017,05,16,08,37,502.20
2017,05,16,08,38,497.70
2017,05,16,08,39,514.00
2017,05,16,08,40,513.90
2017,05,16,08,41,514.50
2017,05,16,08,42,516.80
2017,05,16,08,43,520.90
2017,05,16,08,44,537.00
2017,05,16,08,45,480.00
2017,05,16,08,46,480.00
2017,05,16,08,47,480.00
2017,05,16,08,48,505.70
2017,05,16,08,49,559.90
2017,05,16,08,50,566.90
2017,05,16,08,51,571.70
2017,05,16,08,52,575.50
2017,05,16,08,53,574.40
2017,05,16,08,54,574.40
2017,05,16,08,55,571.90
2017,05,16,08,56,571.00
2017,05,16,08,57,533.20
2017,05,16,08,58,566.10
2017,05,16,08,59,583.90
2017,05,16,09,00,579.30
2017,05,16,09,01,567.30
2017,05,16,09,02,580.90
2017,05,16,09,03,579.30
2017,05,16,09,04,582.80
2017,05,16,09,05,585.40
2017,05,16,09,06,588.00
2017,05,16,09,07,592.00
2017,05,16,09,08,597.50
2017,05,16,09,09,603.50
2017,05,16,09,10,610.30
2017,05,16,09,11,620.10
2017,05,16,09,12,632.00
2017,05,16,09,13,643.60
2017,05,16,09,14,666.50
2017,05,16,09,15,673.10
2017,05,16,09,16,689.60
2017,05,16,09,17,706.20
2017,05,16,09,18,735.70
2017,05,16,09,19,754.90
2017,05,16,09,20,744.00
2017,05,16,09,21,811.00
2017,05,16,09,22,872.00
2017,05,16,09,23,872.00
2017,05,16,09,24,574.10
2017,05,16,09,25,455.00
2017,05,16,09,26,455.00
2017,05,16,09,27,306.50
2017,05,16,09,28,236.40
2017,05,16,09,29,186.10
2017,05,16,09,30,149.50
2017,05,16,09,31,129.70
2017,05,16,09,32,112.90
2017,05,16,09,33,102.20
2017,05,16,09,34,93.30
2017,05,16,09,35,84.50
2017,05,16,09,36,77.30
2017,05,16,09,37,71.60
2017,05,16,09,38,67.90
2017,05,16,09,39,64.10
2017,05,16,09,40,62.20
2017,05,16,09,41,62.00
2017,05,16,09,42,60.10
2017,05,16,09,43,58.10
2017,05,16,09,44,58.00
2017,05,16,09,45,58.00
2017,05,16,09,46,57.50
2017,05,16,09,47,56.60
2017,05,16,09,48,58.00
2017,05,16,09,49,58.00
2017,05,16,09,50,58.90
2017,05,16,09,51,61.00
2017,05,16,09,52,62.00
2017,05,16,09,53,62.70
2017,05,16,09,54,63.00
2017,05,16,09,55,63.00
2017,05,16,09,56,63.00
2017,05,16,09,57,64.70
2017,05,16,09,58,65.00
2017,05,16,09,59,65.20
2017,05,16,10,00,67.40
2017,05,16,10,01,69.20
2017,05,16,10,02,71.70
2017,05,16,10,03,77.00
2017,05,16,10,04,80.90
2017,05,16,10,05,86.00
2017,05,16,10,06,89.00
2017,05,16,10,07,90.00
2017,05,16,10,08,90.00
2017,05,16,10,09,90.00
2017,05,16,10,10,90.00
2017,05,16,10,11,90.00
2017,05,16,10,12,90.00
2017,05,16,10,13,99.90
2017,05,16,10,14,107.60
2017,05,16,10,15,114.00
2017,05,16,10,16,121.80
2017,05,16,10,17,129.30
2017,05,16,10,18,138.00
2017,05,16,10,19,147.40
2017,05,16,10,20,157.50
2017,05,16,10,21,165.70
2017,05,16,10,22,172.00
2017,05,16,10,23,176.60
2017,05,16,10,24,178.80
2017,05,16,10,25,180.60
2017,05,16,10,26,181.00
2017,05,16,10,27,181.00
2017,05,16,10,28,179.00
2017,05,16,10,29,177.80
2017,05,16,10,30,175.40
2017,05,16,10,31,170.00
2017,05,16,10,32,161.50
2017,05,16,10,33,158.00
2017,05,16,10,34,158.00
2017,05,16,10,35,158.00
2017,05,16,10,36,160.60
2017,05,16,10,37,168.30
2017,05,16,10,38,174.80
2017,05,16,10,39,174.60
2017,05,16,10,40,171.70
2017,05,16,10,41,171.90
2017,05,16,10,42,171.10
2017,05,16,10,43,162.10
2017,05,16,10,44,155.90
2017,05,16,10,45,154.70
2017,05,16,10,46,152.10
2017,05,16,10,47,149.00
2017,05,16,10,48,149.70
2017,05,16,10,49,152.50
2017,05,16,10,50,156.40
2017,05,16,10,51,163.80
2017,05,16,10,52,177.70
2017,05,16,10,53,193.70
2017,05,16,10,54,209.00
2017,05,16,10,55,223.70
2017,05,16,10,56,238.50
2017,05,16,10,57,253.70
2017,05,16,10,58,268.30
2017,05,16,10,59,283.50
2017,05,16,11,00,288.60
2017,05,16,11,01,292.00
2017,05,16,11,02,290.90
2017,05,16,11,03,287.70
2017,05,16,11,04,284.50
2017,05,16,11,05,278.60
2017,05,16,11,06,273.40
2017,05,16,11,07,267.70
2017,05,16,11,08,258.30
2017,05,16,11,09,250.00
2017,05,16,11,10,245.00
2017,05,16,11,11,245.70
2017,05,16,11,12,247.90
2017,05,16,11,13,246.10
2017,05,16,11,14,240.60
2017,05,16,11,15,236.60
2017,05,16,11,16,234.00
2017,05,16,11,17,234.60
2017,05,16,11,18,237.00
2017,05,16,11,19,240.50
2017,05,16,11,20,244.40
2017,05,16,11,21,248.60
2017,05,16,11,22,253.50
2017,05,16,11,23,255.00
2017,05,16,11,24,252.10
2017,05,16,11,25,247.20
2017,05,16,11,26,238.70
2017,05,16,11,27,226.10
2017,05,16,11,28,208.80
2017,05,16,11,29,186.40
2017,05,16,11,30,169.10
2017,05,16,11,31,156.80
2017,05,16,11,32,153.60
2017,05,16,11,33,155.30
2017,05,16,11,34,156.00
2017,05,16,11,35,157.90
2017,05,16,11,36,161.60
2017,05,16,11,37,165.40
2017,05,16,11,38,164.20
2017,05,16,11,39,158.10
2017,05,16,11,40,149.80
2017,05,16,11,41,140.40
2017,05,16,11,42,129.00
2017,05,16,11,43,116.00
2017,05,16,11,44,104.20
2017,05,16,11,45,96.40
2017,05,16,11,46,92.60
2017,05,16,11,47,92.00
2017,05,16,11,48,95.70
2017,05,16,11,49,97.40
2017,05,16,11,50,98.00
2017,05,16,11,51,97.40
2017,05,16,11,52,97.60
2017,05,16,11,53,99.30
2017,05,16,11,54,103.70
2017,05,16,11,55,108.10
2017,05,16,11,56,104.70
2017,05,16,11,57,95.90
2017,05,16,11,58,84.10
2017,05,16,11,59,75.60
2017,05,16,12,00,72.30
2017,05,16,12,01,74.80
2017,05,16,12,02,77.00
2017,05,16,12,03,77.00
2017,05,16,12,04,77.00
2017,05,16,12,05,80.00
2017,05,16,12,06,85.60
2017,05,16,12,07,90.90
2017,05,16,12,08,97.60
2017,05,16,12,09,107.90
2017,05,16,12,10,117.90
2017,05,16,12,11,125.90
2017,05,16,12,12,134.20
2017,05,16,12,13,146.20
2017,05,16,12,14,163.80
2017,05,16,12,15,184.00
2017,05,16,12,16,207.20
2017,05,16,12,17,231.60
2017,05,16,12,18,255.70
2017,05,16,12,19,279.10
2017,05,16,12,20,298.00
2017,05,16,12,21,313.30
2017,05,16,12,22,326.20
2017,05,16,12,23,334.20
2017,05,16,12,24,337.40
2017,05,16,12,25,333.50
2017,05,16,12,26,328.00
2017,05,16,12,27,310.70
2017,05,16,12,28,306.00
2017,05,16,12,29,301.90
2017,05,16,12,30,300.40
2017,05,16,12,31,297.00
2017,05,16,12,32,295.00
2017,05,16,12,33,290.70
2017,05,16,12,34,293.30
2017,05,16,12,35,299.30
2017,05,16,12,36,308.50
2017,05,16,12,37,318.90
2017,05,16,12,38,313.90
2017,05,16,12,39,305.40
2017,05,16,12,40,301.70
2017,05,16,12,41,301.00
2017,05,16,12,42,308.20
2017,05,16,12,43,325.40
2017,05,16,12,44,352.80
2017,05,16,12,45,379.30
2017,05,16,12,46,389.90
2017,05,16,12,47,427.60
2017,05,16,12,48,496.50
2017,05,16,12,49,507.60
2017,05,16,12,50,533.00
2017,05,16,12,51,677.10
2017,05,16,12,52,795.00
2017,05,16,12,53,829.70
2017,05,16,12,54,844.90
2017,05,16,12,55,805.10
2017,05,16,12,56,816.80
2017,05,16,12,57,902.40
2017,05,16,12,58,910.50
2017,05,16,12,59,976.00
2017,05,16,13,00,979.90
2017,05,16,13,01,1008.10
2017,05,16,13,02,1048.00
2017,05,16,13,03,1083.00
2017,05,16,13,04,1062.70
2017,05,16,13,05,1025.00
2017,05,16,13,06,817.00
2017,05,16,13,07,624.50
2017,05,16,13,08,622.00
2017,05,16,13,09,622.00
2017,05,16,13,10,1074.60
2017,05,16,13,11,1216.00
2017,05,16,13,12,1267.60
2017,05,16,13,13,1273.00
2017,05,16,13,14,1262.10
2017,05,16,13,15,1153.00
2017,05,16,13,16,1194.10
2017,05,16,13,17,1334.00
2017,05,16,13,18,1049.90
2017,05,16,13,19,372.10
2017,05,16,13,20,333.90
2017,05,16,13,21,314.00
2017,05,16,13,22,316.00
2017,05,16,13,23,353.30
2017,05,16,13,24,363.10
2017,05,16,13,25,360.00
2017,05,16,13,26,360.00
2017,05,16,13,27,1028.60
2017,05,16,13,28,1097.10
2017,05,16,13,29,1097.00
2017,05,16,13,30,1097.00
2017,05,16,13,31,1097.00
2017,05,16,13,32,1106.90
2017,05,16,13,33,1129.70
2017,05,16,13,34,1133.30
2017,05,16,13,35,1125.50
2017,05,16,13,36,1097.50
2017,05,16,13,37,1086.00
2017,05,16,13,38,1086.00
2017,05,16,13,39,1086.00
2017,05,16,13,40,870.40
2017,05,16,13,41,803.00
2017,05,16,13,42,491.80
2017,05,16,13,43,454.60
2017,05,16,13,44,443.00
2017,05,16,13,45,443.00
2017,05,16,13,46,503.20
2017,05,16,13,47,696.00
2017,05,16,13,48,725.70
2017,05,16,13,49,795.00
2017,05,16,13,50,701.70
2017,05,16,13,51,587.50
2017,05,16,13,52,556.90
2017,05,16,13,53,545.50
2017,05,16,13,54,524.40
2017,05,16,13,55,490.30
2017,05,16,13,56,442.70
2017,05,16,13,57,436.00
2017,05,16,13,58,589.00
2017,05,16,13,59,589.00
2017,05,16,14,00,556.60
2017,05,16,14,01,373.00
2017,05,16,14,02,373.00
2017,05,16,14,03,373.00
2017,05,16,14,04,417.00
2017,05,16,14,05,477.30
2017,05,16,14,06,471.00
2017,05,16,14,07,471.00
2017,05,16,14,08,471.00
2017,05,16,14,09,471.00
2017,05,16,14,10,932.00
2017,05,16,14,11,1058.90
2017,05,16,14,12,1056.00
2017,05,16,14,13,1026.10
2017,05,16,14,14,1017.10
2017,05,16,14,15,1007.70
2017,05,16,14,16,1001.00
2017,05,16,14,17,1002.80
2017,05,16,14,18,1000.00
2017,05,16,14,19,913.10
2017,05,16,14,20,772.00
2017,05,16,14,21,905.10
2017,05,16,14,22,1025.80
2017,05,16,14,23,1078.10
2017,05,16,14,24,1150.60
2017,05,16,14,25,1177.60
2017,05,16,14,26,1215.90
2017,05,16,14,27,1222.00
2017,05,16,14,28,452.80
2017,05,16,14,29,439.00
2017,05,16,14,30,439.00
2017,05,16,14,31,465.40
2017,05,16,14,32,550.00
2017,05,16,14,33,488.70
2017,05,16,14,34,392.10
2017,05,16,14,35,449.90
2017,05,16,14,36,475.00
2017,05,16,14,37,475.00
2017,05,16,14,38,416.80
2017,05,16,14,39,388.90
2017,05,16,14,40,392.00
2017,05,16,14,41,1010.90
2017,05,16,14,42,1119.40
2017,05,16,14,43,1066.90
2017,05,16,14,44,1106.00
2017,05,16,14,45,1106.00
2017,05,16,14,46,1106.00
2017,05,16,14,47,1067.70
2017,05,16,14,48,975.00
2017,05,16,14,49,989.60
2017,05,16,14,50,1002.00
2017,05,16,14,51,1002.00
2017,05,16,14,52,1002.00
2017,05,16,14,53,506.40
2017,05,16,14,54,302.60
2017,05,16,14,55,306.00
2017,05,16,14,56,306.00
2017,05,16,14,57,345.60
2017,05,16,14,58,319.60
2017,05,16,14,59,325.00
2017,05,16,15,00,436.60
2017,05,16,15,01,1069.00
2017,05,16,15,02,1069.00
2017,05,16,15,03,1069.00
2017,05,16,15,04,1069.00
2017,05,16,15,05,1069.00
2017,05,16,15,06,647.30
2017,05,16,15,07,224.60
2017,05,16,15,08,187.00
2017,05,16,15,09,189.80
2017,05,16,15,10,205.00
2017,05,16,15,11,224.30
2017,05,16,15,12,231.50
2017,05,16,15,13,216.10
2017,05,16,15,14,200.90
2017,05,16,15,15,187.60
2017,05,16,15,16,174.50
2017,05,16,15,17,177.20
2017,05,16,15,18,190.30
2017,05,16,15,19,220.60
2017,05,16,15,20,252.70
2017,05,16,15,21,275.20
2017,05,16,15,22,277.20
2017,05,16,15,23,268.00
2017,05,16,15,24,261.10
2017,05,16,15,25,265.30
2017,05,16,15,26,274.60
2017,05,16,15,27,295.00
2017,05,16,15,28,338.60
2017,05,16,15,29,394.00
2017,05,16,15,30,432.90
2017,05,16,15,31,416.10
2017,05,16,15,32,338.60
2017,05,16,15,33,320.00
2017,05,16,15,34,320.00
2017,05,16,15,35,348.40
2017,05,16,15,36,361.00
2017,05,16,15,37,341.00
2017,05,16,15,38,341.00
2017,05,16,15,39,344.00
2017,05,16,15,40,358.10
2017,05,16,15,41,368.00
2017,05,16,15,42,369.00
2017,05,16,15,43,369.00
2017,05,16,15,44,360.20
2017,05,16,15,45,290.60
2017,05,16,15,46,330.90
2017,05,16,15,47,281.40
2017,05,16,15,48,304.30
2017,05,16,15,49,331.40
2017,05,16,15,50,359.70
2017,05,16,15,51,364.50
2017,05,16,15,52,338.80
2017,05,16,15,53,346.30
2017,05,16,15,54,373.20
2017,05,16,15,55,381.00
2017,05,16,15,56,560.30
2017,05,16,15,57,592.00
2017,05,16,15,58,913.90
2017,05,16,15,59,867.00
2017,05,16,16,00,831.80
2017,05,16,16,01,800.00
2017,05,16,16,02,791.00
2017,05,16,16,03,784.00
2017,05,16,16,04,774.80
2017,05,16,16,05,759.60
2017,05,16,16,06,746.00
2017,05,16,16,07,738.20
2017,05,16,16,08,740.30
2017,05,16,16,09,744.10
2017,05,16,16,10,753.40
2017,05,16,16,11,762.00
2017,05,16,16,12,764.80
2017,05,16,16,13,766.00
2017,05,16,16,14,765.10
2017,05,16,16,15,768.40
2017,05,16,16,16,778.10
2017,05,16,16,17,760.50
2017,05,16,16,18,743.00
2017,05,16,16,19,736.30
2017,05,16,16,20,732.60
2017,05,16,16,21,720.50
2017,05,16,16,22,716.10
2017,05,16,16,23,729.70
2017,05,16,16,24,737.00
2017,05,16,16,25,737.00
2017,05,16,16,26,320.40
2017,05,16,16,27,251.00
2017,05,16,16,28,423.00
2017,05,16,16,29,413.50
2017,05,16,16,30,231.10
2017,05,16,16,31,245.60
2017,05,16,16,32,254.10
2017,05,16,16,33,266.70
2017,05,16,16,34,282.90
2017,05,16,16,35,278.50
2017,05,16,16,36,285.00
2017,05,16,16,37,339.90
2017,05,16,16,38,366.00
2017,05,16,16,39,366.00
2017,05,16,16,40,366.00
2017,05,16,16,41,366.00
2017,05,16,16,42,301.80
2017,05,16,16,43,325.40
2017,05,16,16,44,429.20
2017,05,16,16,45,517.00
2017,05,16,16,46,527.00
2017,05,16,16,47,559.00
2017,05,16,16,48,559.00
2017,05,16,16,49,559.00
2017,05,16,16,50,406.00
2017,05,16,16,51,249.10
2017,05,16,16,52,290.60
2017,05,16,16,53,318.00
2017,05,16,16,54,318.00
2017,05,16,16,55,247.10
2017,05,16,16,56,208.00
2017,05,16,16,57,189.50
2017,05,16,16,58,201.10
2017,05,16,16,59,246.90
2017,05,16,17,00,333.70
2017,05,16,17,01,320.00
2017,05,16,17,02,320.00
2017,05,16,17,03,460.70
2017,05,16,17,04,789.00
2017,05,16,17,05,789.00
2017,05,16,17,06,789.00
2017,05,16,17,07,789.00
2017,05,16,17,08,703.70
2017,05,16,17,09,653.10
2017,05,16,17,10,629.90